Date String (YYYY-MM-DD hh:mm:ss) UTC,Instrument flags,absolute air pressure of the measurement (hPa),sample flow rate (lpm),inlet stack bypass flow (lpm),air temperature of the measurement (°C),ambient temperature measured by the external sensor (°C),aerosol sample conditioner tube jacket temperature (°C),OPC LED temperature (°C),internal box temperature (°C),relative humidity of the measurement (%),span deviation,mass concentration of particles derived from Lorenz-Mie calculation of OPC scattering (μg/m³),mass concentration of particles derived from Lorenz-Mie calculation of OPC scattering (μg/m³),mass concentration of particles derived from Lorenz-Mie calculation of OPC scattering (μg/m³)
DateTimeUTC,F1_M11,P_M11,Q1_M11,Q2_M11,T1_M11,T2_M11,T3_M11,T4_M11,T5_M11,U1_M11,ZSPAN_M11,X2_M11,X0_M11,X1_M11
2024-05-15 17:00:00,SystemResetWarning,0827.8,5.00,000.00,024.7,024.3,000.0,032.8,026.6,029.1,0001.2,0007.80,0014.45,0007.11
2024-05-15 17:01:00,SystemResetWarning,0827.8,5.00,000.00,024.8,024.3,000.0,032.8,026.7,029.6,0001.3,0007.79,0015.19,0007.08
2024-05-15 17:02:00,SystemResetWarning,0827.8,4.99,000.00,024.8,024.4,000.0,032.9,026.7,028.8,0001.8,0007.70,0015.10,0007.00
2024-05-15 17:03:00,SystemResetWarning,0827.8,4.99,000.00,024.9,024.4,000.0,032.9,026.7,028.7,0001.7,0007.70,0015.36,0006.96
2024-05-15 17:04:00,SystemResetWarning,0827.8,5.00,000.00,024.7,022.9,000.0,033.0,025.9,029.6,0001.2,0007.67,0016.46,0006.92
2024-05-15 17:05:00,SystemResetWarning,0827.8,5.00,000.00,024.3,021.4,000.0,033.0,025.0,030.1,0000.7,0007.64,0015.91,0006.89
2024-05-15 17:06:00,SystemResetWarning,0827.8,5.00,000.00,024.1,021.3,000.0,033.0,025.0,031.1,0001.0,0007.60,0016.26,0006.86
2024-05-15 17:07:00,SystemResetWarning,0827.9,5.02,000.00,024.0,021.7,000.0,032.8,025.1,031.3,0000.8,0007.55,0015.91,0006.80
2024-05-15 17:08:00,SystemResetWarning,0827.8,5.00,000.00,024.0,022.0,000.0,032.7,025.3,030.7,0000.7,0007.53,0016.42,0006.75
2024-05-15 17:09:00,SystemResetWarning,0827.8,5.00,000.00,024.1,022.4,000.0,032.6,025.5,030.2,0000.7,0007.46,0016.89,0006.69
2024-05-15 17:10:00,SystemResetWarning,0827.8,5.00,000.00,024.1,022.7,000.0,032.6,025.7,031.5,0001.3,0007.44,0016.71,0006.66
2024-05-15 17:11:00,SystemResetWarning,0827.9,4.99,000.00,024.1,023.0,000.0,032.5,025.8,029.8,0001.2,0007.39,0015.96,0006.61
2024-05-15 17:12:00,SystemResetWarning,0827.9,5.01,000.00,024.2,023.2,000.0,032.5,026.0,029.5,0000.6,0007.36,0014.97,0006.60
2024-05-15 17:13:00,SystemResetWarning,0827.9,5.01,000.00,024.3,023.4,000.0,032.5,026.1,029.9,0000.4,0007.36,0015.00,0006.62
2024-05-15 17:14:00,SystemResetWarning,0827.9,4.98,000.00,024.3,023.6,000.0,032.5,026.2,029.0,0000.3,0007.32,0015.21,0006.59
2024-05-15 17:15:00,SystemResetWarning,0827.8,4.99,000.00,024.4,023.7,000.0,032.5,026.2,030.0,0000.3,0007.30,0014.90,0006.56
2024-05-15 17:16:00,SystemResetWarning,0827.9,5.01,000.00,024.4,023.8,000.0,032.6,026.3,029.6,0000.5,0007.26,0014.33,0006.54
2024-05-15 17:17:00,SystemResetWarning,0827.9,5.02,000.00,024.5,024.0,000.0,032.6,026.4,029.5,0000.5,0007.25,0013.86,0006.51
2024-05-15 17:18:00,SystemResetWarning,0827.9,4.99,000.00,024.5,024.1,000.0,032.6,026.4,030.2,0000.6,0007.25,0013.57,0006.49
2024-05-15 17:19:00,SystemResetWarning,0827.9,5.00,000.00,024.6,024.2,000.0,032.6,026.5,029.1,0000.7,0007.20,0013.30,0006.45
2024-05-15 17:20:00,SystemResetWarning,0827.9,5.00,000.00,024.7,024.2,000.0,032.7,026.6,028.9,0000.7,0007.17,0012.83,0006.42
2024-05-15 17:21:00,SystemResetWarning,0827.9,5.00,000.00,024.7,024.3,000.0,032.7,026.6,028.5,0000.4,0007.10,0013.24,0006.37
2024-05-15 17:22:00,SystemResetWarning,0827.9,5.01,000.00,024.8,024.4,000.0,032.8,026.7,028.8,0000.7,0007.11,0013.53,0006.37
2024-05-15 17:23:00,SystemResetWarning,0827.9,4.99,000.00,024.7,023.3,000.0,032.9,026.0,028.6,0001.3,0007.13,0013.73,0006.33
2024-05-15 17:24:00,SystemResetWarning,0827.8,5.01,000.00,024.4,022.1,000.0,032.9,025.4,029.8,0001.1,0007.10,0013.79,0006.26
2024-05-15 17:25:00,SystemResetWarning,0827.8,5.01,000.00,024.2,022.2,000.0,032.9,025.5,030.2,0001.0,0007.06,0013.97,0006.23
2024-05-15 17:26:00,SystemResetWarning,0827.9,4.98,000.00,024.2,022.5,000.0,032.7,025.5,030.0,0000.8,0006.98,0013.36,0006.18
2024-05-15 17:27:00,SystemResetWarning,0827.9,5.00,000.00,024.3,022.8,000.0,032.7,025.7,030.5,0000.4,0006.94,0013.03,0006.15
2024-05-15 17:28:00,SystemResetWarning,0828.0,5.01,000.00,024.3,023.1,000.0,032.6,025.9,029.4,0000.3,0006.87,0013.00,0006.09
2024-05-15 17:29:00,SystemResetWarning,0827.9,5.01,000.00,024.3,023.3,000.0,032.6,026.1,029.3,0000.1,0006.79,0013.15,0006.03
2024-05-15 17:30:00,SystemResetWarning,0827.9,4.99,000.00,024.4,023.5,000.0,032.6,026.2,029.8,0000.4,0006.82,0012.94,0006.02
2024-05-15 17:31:00,SystemResetWarning,0827.9,5.00,000.00,024.4,023.7,000.0,032.6,026.3,030.5,0000.4,0006.81,0012.84,0005.97
2024-05-15 17:32:00,SystemResetWarning,0828.0,5.00,000.00,024.5,023.8,000.0,032.6,026.3,029.7,0000.3,0006.78,0012.34,0005.93
2024-05-15 17:33:00,SystemResetWarning,0828.0,5.00,000.00,024.6,024.0,000.0,032.7,026.4,029.5,0000.0,0006.67,0011.99,0005.85
2024-05-15 17:34:00,SystemResetWarning,0828.0,5.00,000.00,024.6,024.1,000.0,032.7,026.5,029.2,-000.3,0006.55,0011.79,0005.77
2024-05-15 17:35:00,SystemResetWarning,0828.0,5.00,000.00,024.7,024.2,000.0,032.7,026.5,030.3,-000.4,0006.44,0011.61,0005.71
2024-05-15 17:36:00,SystemResetWarning,0828.1,5.00,000.00,024.7,024.2,000.0,032.8,026.6,029.2,-000.4,0006.38,0012.00,0005.62
2024-05-15 17:37:00,SystemResetWarning,0828.0,4.99,000.00,024.6,022.9,000.0,032.8,025.9,029.1,-000.2,0006.36,0011.85,0005.55
2024-05-15 17:38:00,SystemResetWarning,0827.9,5.00,000.00,024.2,021.3,000.0,032.9,024.9,030.3,0000.3,0006.29,0012.47,0005.50
2024-05-15 17:39:00,SystemResetWarning,0827.9,5.02,000.00,024.0,021.2,000.0,032.8,024.8,030.7,0000.8,0006.28,0013.06,0005.49
2024-05-15 17:40:00,SystemResetWarning,0828.0,5.01,000.00,023.9,021.6,000.0,032.7,025.0,030.4,0001.4,0006.25,0012.85,0005.48
2024-05-15 17:41:00,SystemResetWarning,0828.0,5.00,000.00,023.9,022.0,000.0,032.6,025.2,030.1,0001.3,0006.15,0012.53,0005.45
2024-05-15 17:42:00,SystemResetWarning,0828.0,5.00,000.00,023.9,022.3,000.0,032.5,025.5,030.2,0001.5,0006.11,0012.44,0005.44
2024-05-15 17:43:00,SystemResetWarning,0828.0,5.00,000.00,024.0,022.7,000.0,032.5,025.6,030.5,0001.6,0006.13,0012.36,0005.46
2024-05-15 17:44:00,SystemResetWarning,0828.1,5.00,000.00,024.0,022.9,000.0,032.4,025.7,029.6,0001.4,0006.17,0012.37,0005.48
2024-05-15 17:45:00,SystemResetWarning,0828.0,5.00,000.00,024.1,023.2,000.0,032.4,025.9,030.2,0001.5,0006.20,0012.30,0005.51
2024-05-15 17:46:00,SystemResetWarning,0828.1,4.99,000.00,024.2,023.4,000.0,032.4,026.0,030.7,0002.2,0006.25,0012.49,0005.52
2024-05-15 17:47:00,SystemResetWarning,0828.1,4.99,000.00,024.2,023.5,000.0,032.4,026.1,030.0,0002.1,0006.23,0012.09,0005.55
2024-05-15 17:48:00,SystemResetWarning,0828.1,5.00,000.00,024.3,023.7,000.0,032.4,026.2,030.0,0000.0,0006.20,0012.36,0005.57
2024-05-15 17:49:00,SystemResetWarning,0828.1,5.00,000.00,024.4,023.8,000.0,032.5,026.2,030.1,0000.0,0006.21,0012.33,0005.59
2024-05-15 17:50:00,SystemResetWarning,0828.0,5.01,000.00,024.4,023.9,000.0,032.5,026.3,029.4,0000.0,0006.23,0011.80,0005.57
2024-05-15 17:51:00,SystemResetWarning,0828.0,5.01,000.00,024.5,024.0,000.0,032.5,026.3,028.5,0000.4,0006.26,0011.99,0005.57
2024-05-15 17:52:00,SystemResetWarning,0828.0,4.99,000.00,024.5,024.1,000.0,032.6,026.4,028.5,0001.0,0006.29,0012.09,0005.57
2024-05-15 17:53:00,SystemResetWarning,0828.0,4.99,000.00,024.6,024.2,000.0,032.6,026.5,029.0,0000.5,0006.32,0012.14,0005.58
2024-05-15 17:54:00,SystemResetWarning,0828.1,4.99,000.00,024.7,024.3,000.0,032.6,026.6,029.0,0000.5,0006.32,0012.14,0005.59
2024-05-15 17:55:00,SystemResetWarning,0828.1,5.01,000.00,024.7,024.3,000.0,032.7,026.6,028.6,0001.8,0006.37,0012.31,0005.65
2024-05-15 17:56:00,SystemResetWarning,0828.1,4.99,000.00,024.7,023.3,000.0,032.8,026.1,028.5,0001.9,0006.41,0012.42,0005.68
2024-05-15 17:57:00,SystemResetWarning,0827.9,5.01,000.00,024.3,021.9,000.0,032.8,025.3,029.1,0001.4,0006.48,0012.89,0005.76
2024-05-15 17:58:00,SystemResetWarning,0827.9,5.02,000.00,024.2,022.0,000.0,032.8,025.2,029.8,0001.3,0006.54,0012.52,0005.84
2024-05-15 17:59:00,SystemResetWarning,0828.0,4.99,000.00,024.1,022.3,000.0,032.7,025.4,030.1,0001.0,0006.63,0012.21,0005.90
